This is the latest recevied weather packets stored in our database for station/object SQ7ACP-3. If no packets are shown the sender has not sent any weather packets the latest 10 day(s).
| Time | Temp. | Humidity | Pressure | Rain* | Wind** | Luminosity | Snow |
|---|---|---|---|---|---|---|---|
| 1777439346 | 1.67° C | 61% | 1026 hPa | 0 mm | - | - | - |
| 1777438733 | 1.67° C | 63% | 1026 hPa | 0 mm | - | - | - |
| 1777438133 | 1.11° C | 62% | 1025.9 hPa | 0 mm | - | - | - |
| 1777437533 | 1.11° C | 62% | 1025.8 hPa | 0 mm | - | - | - |
| 1777436933 | 1.11° C | 62% | 1025.7 hPa | 0 mm | - | - | - |
| 1777436321 | 1.11° C | 61% | 1025.7 hPa | 0 mm | - | - | - |
| 1777435708 | 0.56° C | 62% | 1025.5 hPa | 0 mm | - | - | - |
| 1777435098 | 0.56° C | 62% | 1025.4 hPa | 0 mm | - | - | - |
| 1777434496 | 1.11° C | 61% | 1025.3 hPa | 0 mm | - | - | - |
| 1777433896 | 0.56° C | 62% | 1025.3 hPa | 0 mm | - | - | - |
| 1777433283 | 1.11° C | 61% | 1025.1 hPa | 0 mm | - | - | - |
| 1777432683 | 1.11° C | 61% | 1025.2 hPa | 0 mm | - | - | - |
| 1777432071 | 1.67° C | 60% | 1025.1 hPa | 0 mm | - | - | - |
| 1777431470 | 1.67° C | 58% | 1025.1 hPa | 0 mm | - | - | - |
| 1777430858 | 1.67° C | 57% | 1025 hPa | 0 mm | - | - | - |
| 1777430258 | 2.22° C | 57% | 1025 hPa | 0 mm | - | - | - |
| 1777429645 | 2.22° C | 56% | 1024.9 hPa | 0 mm | - | - | - |
| 1777429045 | 2.78° C | 55% | 1024.9 hPa | 0 mm | - | - | - |
| 1777428433 | 2.78° C | 54% | 1024.8 hPa | 0 mm | - | - | - |
| 1777427823 | 3.33° C | 53% | 1024.8 hPa | 0 mm | - | - | - |
| 1777427208 | 3.33° C | 52% | 1024.8 hPa | 0 mm | - | - | - |
| 1777426608 | 3.89° C | 51% | 1024.8 hPa | 0 mm | - | - | - |
| 1777425996 | 3.89° C | 50% | 1024.7 hPa | 0 mm | - | - | - |
| 1777425386 | 3.89° C | 49% | 1024.6 hPa | 0 mm | - | - | - |
| 1777424783 | 4.44° C | 49% | 1024.4 hPa | 0 mm | - | - | - |
* Rain latest hour (hover to see other rain measurements)
** Current wind speed in m/s (hover to see current wind gust speed)